IBE09PZ LEMD-LDDU

Flight info

Callsign IBE09PZ
Flight time 2h 18m
Altitude 37000
Route PINAR N870 BCN N725 OSPOK DCT NOLVI DCT ORKUM DCT ELSAG DCT ALG DCT ARSIK DCT XOLTA DCT ORAKA
Aircraft A320/M-SDE3FGHIRWY/LB1

Departure

Time 2026-05-07 11:15
Airport Adolfo Suárez Madrid–Barajas Airport (LEMD)

Arrival

Time 2026-05-07 13:33
Airport Dubrovnik Ruđer Bošković Airport (LDDU)
Time Latitude Longitude Altitude Speed Heading
2026-05-07 10:59 40.49346 -3.58967 2022 ft 0 kts 269°
2026-05-07 11:04 40.49346 -3.58938 2022 ft 4 kts 269°
2026-05-07 11:04 40.49346 -3.58910 2028 ft 4 kts 255°
2026-05-07 11:04 40.49360 -3.58885 2032 ft 4 kts 193°
2026-05-07 11:04 40.49385 -3.58883 2029 ft 3 kts 179°
2026-05-07 11:05 40.49389 -3.58883 2030 ft 0 kts 179°
2026-05-07 11:07 40.49368 -3.58883 2031 ft 11 kts 180°
2026-05-07 11:07 40.49239 -3.58882 2022 ft 22 kts 179°
2026-05-07 11:08 40.49081 -3.58879 2022 ft 23 kts 180°
2026-05-07 11:08 40.48919 -3.58877 2022 ft 24 kts 179°
2026-05-07 11:08 40.48790 -3.58875 2022 ft 16 kts 174°
2026-05-07 11:08 40.48762 -3.58780 2022 ft 13 kts 92°
2026-05-07 11:09 40.48760 -3.58633 2022 ft 19 kts 88°
2026-05-07 11:09 40.48761 -3.58432 2016 ft 24 kts 89°
2026-05-07 11:09 40.48762 -3.58192 2008 ft 28 kts 90°
2026-05-07 11:09 40.48835 -3.58049 2003 ft 14 kts
2026-05-07 11:10 40.48857 -3.57965 2000 ft 13 kts 89°
2026-05-07 11:10 40.48858 -3.57799 1994 ft 23 kts 89°
2026-05-07 11:10 40.48859 -3.57550 1989 ft 31 kts 90°
2026-05-07 11:10 40.48861 -3.57281 1984 ft 30 kts 91°
2026-05-07 11:11 40.48866 -3.57027 1980 ft 26 kts 91°
2026-05-07 11:11 40.48859 -3.56796 1975 ft 28 kts 94°
2026-05-07 11:11 40.48861 -3.56600 1971 ft 24 kts 89°
2026-05-07 11:11 40.48865 -3.56367 1965 ft 26 kts 87°
2026-05-07 11:12 40.48935 -3.56244 1962 ft 18 kts
2026-05-07 11:12 40.49066 -3.56244 1962 ft 21 kts
2026-05-07 11:12 40.49217 -3.56246 1962 ft 22 kts
2026-05-07 11:12 40.49371 -3.56238 1961 ft 23 kts
2026-05-07 11:13 40.49529 -3.56244 1961 ft 23 kts 356°
2026-05-07 11:13 40.49690 -3.56251 1961 ft 23 kts 359°
2026-05-07 11:13 40.49852 -3.56251 1961 ft 23 kts
2026-05-07 11:13 40.49942 -3.56209 1960 ft 15 kts 67°
2026-05-07 11:14 40.49945 -3.56070 1958 ft 16 kts 92°
2026-05-07 11:14 40.50002 -3.55944 1959 ft 22 kts 33°
2026-05-07 11:14 40.50333 -3.55923 1962 ft 81 kts 360°
2026-05-07 11:14 40.51099 -3.55930 1957 ft 137 kts 360°
2026-05-07 11:15 40.52187 -3.55947 2019 ft 174 kts 359°
2026-05-07 11:15 40.53393 -3.55920 2680 ft 175 kts
2026-05-07 11:15 40.54618 -3.55768 3358 ft 179 kts 14°
2026-05-07 11:15 40.55807 -3.55235 3954 ft 185 kts 21°
2026-05-07 11:16 40.57085 -3.54672 4279 ft 202 kts 17°
2026-05-07 11:16 40.58474 -3.54087 4646 ft 217 kts 18°
2026-05-07 11:16 40.59897 -3.53236 5090 ft 233 kts 35°
2026-05-07 11:16 40.61201 -3.51806 5424 ft 256 kts 41°
2026-05-07 11:17 40.62600 -3.50227 5985 ft 270 kts 40°
2026-05-07 11:17 40.64025 -3.48629 6752 ft 275 kts 40°
2026-05-07 11:17 40.65496 -3.46985 7519 ft 279 kts 40°
2026-05-07 11:17 40.66989 -3.45316 8300 ft 284 kts 40°
2026-05-07 11:18 40.68505 -3.43620 9092 ft 288 kts 40°
2026-05-07 11:18 40.70046 -3.41897 9852 ft 293 kts 40°
2026-05-07 11:18 40.71621 -3.40133 10358 ft 306 kts 40°
2026-05-07 11:18 40.73305 -3.38244 10563 ft 330 kts 40°
2026-05-07 11:19 40.75087 -3.36247 10737 ft 351 kts 40°
2026-05-07 11:19 40.76976 -3.34131 11235 ft 360 kts 40°
2026-05-07 11:19 40.78896 -3.31977 11899 ft 364 kts 40°
2026-05-07 11:19 40.80834 -3.29800 12591 ft 367 kts 40°
2026-05-07 11:20 40.82784 -3.27594 13266 ft 371 kts 42°
2026-05-07 11:20 40.84512 -3.25043 13892 ft 376 kts 54°
2026-05-07 11:20 40.85792 -3.22021 14474 ft 380 kts 67°
2026-05-07 11:20 40.86582 -3.18679 15054 ft 383 kts 75°
2026-05-07 11:21 40.87246 -3.15253 15638 ft 386 kts 75°
2026-05-07 11:21 40.87913 -3.11852 16202 ft 390 kts 75°
2026-05-07 11:21 40.88602 -3.08376 16773 ft 393 kts 75°
2026-05-07 11:21 40.89300 -3.04868 17328 ft 396 kts 75°
2026-05-07 11:22 40.89998 -3.01332 17861 ft 399 kts 75°
2026-05-07 11:22 40.90697 -2.97761 18368 ft 403 kts 75°
2026-05-07 11:22 40.91396 -2.94156 18803 ft 407 kts 75°
2026-05-07 11:22 40.92104 -2.90514 19235 ft 411 kts 75°
2026-05-07 11:23 40.92820 -2.86837 19647 ft 416 kts 75°
2026-05-07 11:23 40.93534 -2.83168 20056 ft 420 kts 75°
2026-05-07 11:23 40.94265 -2.79411 20467 ft 424 kts 75°
2026-05-07 11:23 40.95004 -2.75615 20853 ft 428 kts 75°
2026-05-07 11:24 40.95749 -2.71778 21253 ft 432 kts 75°
2026-05-07 11:24 40.96498 -2.67908 21651 ft 436 kts 76°
2026-05-07 11:24 40.97250 -2.64002 22039 ft 440 kts 76°
2026-05-07 11:24 40.98008 -2.60059 22416 ft 444 kts 76°
2026-05-07 11:25 40.98764 -2.56127 22790 ft 448 kts 76°
2026-05-07 11:25 40.99535 -2.52109 23167 ft 452 kts 76°
2026-05-07 11:25 41.00309 -2.48059 23531 ft 456 kts 76°
2026-05-07 11:25 41.01084 -2.43972 23845 ft 459 kts 76°
2026-05-07 11:26 41.01861 -2.39863 24161 ft 462 kts 76°
2026-05-07 11:26 41.02643 -2.35722 24495 ft 464 kts 76°
2026-05-07 11:26 41.03431 -2.31566 24823 ft 467 kts 76°
2026-05-07 11:26 41.04224 -2.27392 25143 ft 469 kts 76°
2026-05-07 11:27 41.05021 -2.23187 25464 ft 472 kts 77°
2026-05-07 11:27 41.05811 -2.19019 25779 ft 474 kts 77°
2026-05-07 11:27 41.06613 -2.14773 26097 ft 476 kts 77°
2026-05-07 11:27 41.07414 -2.10507 26400 ft 479 kts 77°
2026-05-07 11:28 41.08217 -2.06219 26692 ft 481 kts 77°
2026-05-07 11:28 41.09024 -2.01905 26994 ft 483 kts 77°
2026-05-07 11:28 41.09830 -1.97573 27287 ft 485 kts 77°
2026-05-07 11:28 41.10636 -1.93214 27570 ft 487 kts 77°
2026-05-07 11:29 41.11444 -1.88840 27826 ft 490 kts 77°
2026-05-07 11:29 41.12243 -1.84505 28104 ft 492 kts 77°
2026-05-07 11:29 41.13055 -1.80095 28373 ft 494 kts 77°
2026-05-07 11:29 41.13871 -1.75658 28631 ft 496 kts 77°
2026-05-07 11:30 41.14687 -1.71209 28881 ft 498 kts 77°
2026-05-07 11:30 41.15503 -1.66746 29270 ft 497 kts 78°
2026-05-07 11:30 41.16315 -1.62295 29662 ft 496 kts 78°
2026-05-07 11:30 41.17127 -1.57849 30023 ft 496 kts 78°
2026-05-07 11:31 41.17938 -1.53398 30343 ft 495 kts 78°
2026-05-07 11:31 41.18743 -1.48960 30658 ft 495 kts 78°
2026-05-07 11:31 41.19550 -1.44518 30972 ft 494 kts 78°
2026-05-07 11:31 41.20343 -1.40145 31265 ft 494 kts 78°
2026-05-07 11:32 41.21941 -1.31277 31881 ft 493 kts 78°
2026-05-07 11:32 41.22731 -1.26848 32199 ft 493 kts 78°
2026-05-07 11:32 41.23519 -1.22426 32513 ft 492 kts 78°
2026-05-07 11:33 41.24307 -1.18000 32816 ft 492 kts 78°
2026-05-07 11:33 41.25093 -1.13577 33126 ft 492 kts 78°
2026-05-07 11:33 41.25879 -1.09159 33428 ft 491 kts 79°
2026-05-07 11:33 41.26662 -1.04740 33724 ft 491 kts 79°
2026-05-07 11:34 41.27430 -1.00382 34005 ft 491 kts 79°
2026-05-07 11:34 41.28210 -0.95970 34264 ft 490 kts 79°
2026-05-07 11:34 41.28988 -0.91566 34518 ft 490 kts 79°
2026-05-07 11:34 41.29763 -0.87160 34765 ft 489 kts 79°
2026-05-07 11:35 41.30539 -0.82754 34997 ft 489 kts 79°
2026-05-07 11:35 41.31307 -0.78352 35250 ft 488 kts 79°
2026-05-07 11:35 41.32070 -0.73957 35454 ft 488 kts 79°
2026-05-07 11:35 41.32833 -0.69563 35686 ft 487 kts 79°
2026-05-07 11:36 41.33583 -0.65227 35898 ft 487 kts 79°
2026-05-07 11:36 41.34343 -0.60835 36107 ft 487 kts 79°
2026-05-07 11:36 41.35057 -0.56439 36310 ft 485 kts 83°
2026-05-07 11:36 41.35375 -0.51997 36509 ft 481 kts 92°
2026-05-07 11:37 41.35352 -0.47550 36692 ft 480 kts 94°
2026-05-07 11:37 41.35313 -0.43115 36889 ft 480 kts 94°
2026-05-07 11:37 41.35276 -0.38662 36969 ft 481 kts 94°
2026-05-07 11:38 41.35207 -0.29797 36963 ft 482 kts 94°
2026-05-07 11:38 41.35137 -0.20879 36965 ft 482 kts 94°
2026-05-07 11:39 41.35065 -0.11951 36967 ft 483 kts 94°
2026-05-07 11:39 41.34974 -0.03022 36974 ft 482 kts 94°
2026-05-07 11:40 41.34866 0.05839 36975 ft 481 kts 95°
2026-05-07 11:40 41.34757 0.14715 36993 ft 479 kts 95°
2026-05-07 11:41 41.34648 0.23563 36995 ft 478 kts 95°
2026-05-07 11:41 41.34535 0.32111 36992 ft 477 kts 95°
2026-05-07 11:42 41.34411 0.40873 36985 ft 477 kts 95°
2026-05-07 11:42 41.34280 0.49689 36982 ft 477 kts 95°
2026-05-07 11:43 41.34147 0.58510 36980 ft 477 kts 95°
2026-05-07 11:43 41.34005 0.67335 36977 ft 477 kts 95°
2026-05-07 11:44 41.33854 0.76162 36975 ft 477 kts 96°
2026-05-07 11:44 41.33698 0.84931 36981 ft 478 kts 96°
2026-05-07 11:45 41.33533 0.93770 36982 ft 478 kts 96°
2026-05-07 11:45 41.33363 1.02612 36984 ft 478 kts 96°
2026-05-07 11:46 41.33184 1.11455 36983 ft 479 kts 96°
2026-05-07 11:46 41.33000 1.20249 36986 ft 479 kts 96°
2026-05-07 11:47 41.32814 1.29118 36987 ft 480 kts 96°
2026-05-07 11:47 41.32622 1.37996 36987 ft 480 kts 96°
2026-05-07 11:48 41.32412 1.46873 36986 ft 480 kts 96°
2026-05-07 11:48 41.32197 1.55705 36992 ft 481 kts 96°
2026-05-07 11:49 41.31973 1.64594 36991 ft 481 kts 96°
2026-05-07 11:49 41.31752 1.73489 37001 ft 481 kts 96°
2026-05-07 11:50 41.31521 1.82395 37008 ft 482 kts 97°
2026-05-07 11:50 41.31278 1.91298 37015 ft 482 kts 97°
2026-05-07 11:51 41.31026 2.00142 37014 ft 482 kts 97°
2026-05-07 11:51 41.30750 2.09062 37013 ft 481 kts 99°
2026-05-07 11:52 41.29576 2.17716 37011 ft 475 kts 108°
2026-05-07 11:52 41.28158 2.26296 37012 ft 475 kts 108°
2026-05-07 11:53 41.26797 2.34547 37004 ft 476 kts 108°
2026-05-07 11:53 41.25375 2.43133 37002 ft 476 kts 108°
2026-05-07 11:54 41.23940 2.51725 36998 ft 476 kts 108°
2026-05-07 11:54 41.22490 2.60312 36998 ft 477 kts 108°
2026-05-07 11:55 41.21043 2.68843 36995 ft 477 kts 108°
2026-05-07 11:55 41.19587 2.77446 36996 ft 477 kts 108°
2026-05-07 11:56 41.18125 2.86047 36994 ft 478 kts 108°
2026-05-07 11:56 41.16651 2.94652 36998 ft 478 kts 108°
2026-05-07 11:57 41.15183 3.03205 36999 ft 479 kts 108°
2026-05-07 11:57 41.13697 3.11819 37001 ft 479 kts 108°
2026-05-07 11:58 41.12196 3.20433 37005 ft 480 kts 109°
2026-05-07 11:58 41.10693 3.29057 37003 ft 480 kts 109°
2026-05-07 11:59 41.09183 3.37689 37003 ft 481 kts 109°
2026-05-07 11:59 41.07673 3.46261 37003 ft 481 kts 109°
2026-05-07 12:00 41.06138 3.54893 36996 ft 481 kts 109°
2026-05-07 12:00 41.04603 3.63528 36998 ft 482 kts 109°
2026-05-07 12:01 41.03060 3.72173 36995 ft 482 kts 109°
2026-05-07 12:01 41.01517 3.80758 36998 ft 483 kts 109°
2026-05-07 12:02 40.99955 3.89408 36993 ft 483 kts 109°
2026-05-07 12:02 40.98388 3.98060 36998 ft 484 kts 109°
2026-05-07 12:03 40.96809 4.06721 36990 ft 484 kts 109°
2026-05-07 12:03 40.95217 4.15379 36996 ft 485 kts 109°
2026-05-07 12:04 40.93637 4.23993 36985 ft 485 kts 109°
2026-05-07 12:04 40.92036 4.32663 36986 ft 486 kts 110°
2026-05-07 12:05 40.90423 4.41345 36995 ft 486 kts 109°
2026-05-07 12:05 40.88804 4.50030 36993 ft 487 kts 110°
2026-05-07 12:06 40.87197 4.58658 36990 ft 487 kts 110°
2026-05-07 12:06 40.85649 4.67385 36988 ft 491 kts 104°
2026-05-07 12:07 40.84810 4.76374 36990 ft 494 kts 102°
2026-05-07 12:07 40.83981 4.85375 36992 ft 494 kts 102°
2026-05-07 12:08 40.83141 4.94315 36993 ft 494 kts 102°
2026-05-07 12:08 40.82281 5.03324 36990 ft 495 kts 102°
2026-05-07 12:09 40.81428 5.12341 36993 ft 495 kts 102°
2026-05-07 12:09 40.80565 5.21361 36990 ft 495 kts 102°
2026-05-07 12:10 40.79698 5.30321 36985 ft 496 kts 102°
2026-05-07 12:10 40.78820 5.39353 36985 ft 496 kts 103°
2026-05-07 12:11 40.77932 5.48389 36982 ft 497 kts 103°
2026-05-07 12:11 40.77033 5.57433 36986 ft 497 kts 103°
2026-05-07 12:12 40.76123 5.66474 36988 ft 498 kts 103°
2026-05-07 12:12 40.75222 5.75466 36986 ft 498 kts 103°
2026-05-07 12:13 40.74305 5.84531 36987 ft 499 kts 103°
2026-05-07 12:13 40.73372 5.93592 36986 ft 499 kts 103°
2026-05-07 12:14 40.72444 6.02607 36984 ft 500 kts 103°
2026-05-07 12:14 40.71508 6.11688 36984 ft 500 kts 103°
2026-05-07 12:15 40.70552 6.20778 36979 ft 501 kts 103°
2026-05-07 12:15 40.69584 6.29879 36993 ft 502 kts 103°
2026-05-07 12:16 40.68619 6.38989 36986 ft 503 kts 103°
2026-05-07 12:16 40.67647 6.48050 36976 ft 503 kts 104°
2026-05-07 12:17 40.66653 6.57187 36974 ft 504 kts 104°
2026-05-07 12:17 40.65659 6.66337 36973 ft 505 kts 104°
2026-05-07 12:18 40.64656 6.75507 36971 ft 506 kts 104°
2026-05-07 12:18 40.63647 6.84629 36970 ft 507 kts 104°
2026-05-07 12:19 40.62615 6.93822 36976 ft 508 kts 104°
2026-05-07 12:19 40.61583 7.03038 36971 ft 509 kts 104°
2026-05-07 12:20 40.60541 7.12272 36967 ft 510 kts 104°
2026-05-07 12:20 40.59494 7.21455 36967 ft 511 kts 104°
2026-05-07 12:21 40.58424 7.30709 36968 ft 512 kts 105°
2026-05-07 12:21 40.57350 7.39986 36965 ft 513 kts 105°
2026-05-07 12:22 40.56628 7.49370 36964 ft 522 kts 93°
2026-05-07 12:22 40.57321 7.58865 36964 ft 527 kts 87°
2026-05-07 12:23 40.58130 7.68158 36965 ft 528 kts 87°
2026-05-07 12:23 40.58954 7.77764 36965 ft 529 kts 87°
2026-05-07 12:24 40.59767 7.87388 36962 ft 530 kts 87°
2026-05-07 12:24 40.60570 7.96960 36956 ft 531 kts 87°
2026-05-07 12:25 40.61363 8.06625 36953 ft 531 kts 87°
2026-05-07 12:25 40.62160 8.16306 36954 ft 532 kts 87°
2026-05-07 12:26 40.62949 8.26003 36954 ft 533 kts 87°
2026-05-07 12:26 40.63730 8.35716 36953 ft 534 kts 87°
2026-05-07 12:27 40.64752 8.45418 36949 ft 538 kts 77°
2026-05-07 12:27 40.67309 8.54613 36950 ft 540 kts 66°
2026-05-07 12:28 40.70258 8.63719 36949 ft 540 kts 67°
2026-05-07 12:28 40.73182 8.72853 36958 ft 541 kts 67°
2026-05-07 12:29 40.76101 8.82001 36957 ft 541 kts 66°
2026-05-07 12:29 40.79002 8.91097 36968 ft 541 kts 66°
2026-05-07 12:30 40.81916 9.00254 36970 ft 541 kts 66°
2026-05-07 12:30 40.84821 9.09421 36980 ft 541 kts 66°
2026-05-07 12:31 40.87705 9.18534 36989 ft 541 kts 66°
2026-05-07 12:31 40.90595 9.27706 36998 ft 541 kts 66°
2026-05-07 12:32 40.93475 9.36894 37006 ft 540 kts 66°
2026-05-07 12:32 40.96345 9.46072 37010 ft 540 kts 66°
2026-05-07 12:33 41.00614 9.59798 37008 ft 540 kts 67°
2026-05-07 12:33 41.03461 9.69002 37001 ft 540 kts 66°
2026-05-07 12:34 41.06307 9.78200 37008 ft 540 kts 66°
2026-05-07 12:34 41.09149 9.87409 37010 ft 540 kts 66°
2026-05-07 12:35 41.11963 9.96558 37015 ft 540 kts 66°
2026-05-07 12:35 41.14783 10.05783 37017 ft 539 kts 67°
2026-05-07 12:36 41.17591 10.15014 37023 ft 539 kts 67°
2026-05-07 12:36 41.20390 10.24244 37024 ft 539 kts 67°
2026-05-07 12:37 41.23167 10.33414 37027 ft 538 kts 67°
2026-05-07 12:37 41.25947 10.42640 37030 ft 538 kts 67°
2026-05-07 12:38 41.28719 10.51865 37028 ft 537 kts 67°
2026-05-07 12:38 41.31483 10.61096 37028 ft 536 kts 67°
2026-05-07 12:39 41.34214 10.70255 37037 ft 536 kts 67°
2026-05-07 12:39 41.36948 10.79462 37037 ft 535 kts 67°
2026-05-07 12:40 41.39677 10.88673 37042 ft 534 kts 67°
2026-05-07 12:40 41.42401 10.97865 37037 ft 533 kts 67°
2026-05-07 12:41 41.45114 11.07050 37034 ft 532 kts 67°
2026-05-07 12:41 41.47792 11.16178 37036 ft 532 kts 67°
2026-05-07 12:42 41.50474 11.25362 37036 ft 531 kts 67°
2026-05-07 12:42 41.53144 11.34541 37038 ft 530 kts 68°
2026-05-07 12:43 41.55801 11.43720 37036 ft 530 kts 68°
2026-05-07 12:43 41.58436 11.52830 37031 ft 529 kts 68°
2026-05-07 12:44 41.61076 11.61989 37024 ft 528 kts 68°
2026-05-07 12:44 41.63708 11.71148 37020 ft 527 kts 68°
2026-05-07 12:45 41.66322 11.80306 37016 ft 527 kts 68°
2026-05-07 12:45 41.68909 11.89402 37017 ft 526 kts 68°
2026-05-07 12:46 41.71509 11.98546 37014 ft 526 kts 68°
2026-05-07 12:46 41.74094 12.07692 37016 ft 525 kts 68°
2026-05-07 12:47 41.76670 12.16825 37017 ft 524 kts 68°
2026-05-07 12:47 41.79235 12.25958 37015 ft 523 kts 68°
2026-05-07 12:48 41.81772 12.35025 37017 ft 523 kts 68°
2026-05-07 12:48 41.84319 12.44157 37016 ft 522 kts 68°
2026-05-07 12:49 41.86851 12.53278 37018 ft 522 kts 68°
2026-05-07 12:49 41.89381 12.62392 37017 ft 521 kts 68°
2026-05-07 12:50 41.91901 12.71503 37042 ft 520 kts 69°
2026-05-07 12:50 41.94382 12.80551 37040 ft 520 kts 69°
2026-05-07 12:51 41.96872 12.89657 37039 ft 519 kts 69°
2026-05-07 12:51 41.99354 12.98756 37028 ft 518 kts 69°
2026-05-07 12:52 42.01811 13.07788 37020 ft 517 kts 69°
2026-05-07 12:52 42.04267 13.16857 37016 ft 516 kts 69°
2026-05-07 12:53 42.06712 13.25922 37016 ft 515 kts 69°
2026-05-07 12:53 42.09144 13.34976 37013 ft 514 kts 69°
2026-05-07 12:54 42.11573 13.44030 37012 ft 514 kts 69°
2026-05-07 12:54 42.13988 13.53081 37012 ft 513 kts 69°
2026-05-07 12:55 42.16374 13.62060 36992 ft 512 kts 69°
2026-05-07 12:55 42.18768 13.71110 37007 ft 513 kts 70°
2026-05-07 12:56 42.21157 13.80166 37014 ft 512 kts 70°
2026-05-07 12:56 42.23546 13.89222 37025 ft 512 kts 70°
2026-05-07 12:57 42.25901 13.98216 37031 ft 511 kts 70°
2026-05-07 12:57 42.28268 14.07264 37031 ft 511 kts 70°
2026-05-07 12:58 42.30627 14.16319 37037 ft 511 kts 70°
2026-05-07 12:58 42.32962 14.25379 37035 ft 510 kts 70°
2026-05-07 12:59 42.35279 14.34374 37036 ft 510 kts 70°
2026-05-07 12:59 42.37610 14.43427 37034 ft 509 kts 70°
2026-05-07 13:00 42.39928 14.52474 37032 ft 509 kts 70°
2026-05-07 13:00 42.42237 14.61521 37030 ft 508 kts 70°
2026-05-07 13:01 42.44520 14.70502 37026 ft 508 kts 70°
2026-05-07 13:01 42.46804 14.79548 37028 ft 507 kts 70°
2026-05-07 13:02 42.49084 14.88586 37027 ft 507 kts 70°
2026-05-07 13:02 42.51359 14.97623 37026 ft 506 kts 70°
2026-05-07 13:03 42.53621 15.06661 37030 ft 506 kts 70°
2026-05-07 13:03 42.55854 15.15638 37027 ft 506 kts 70°
2026-05-07 13:04 42.58098 15.24674 37022 ft 505 kts 70°
2026-05-07 13:04 42.60342 15.33708 37025 ft 505 kts 70°
2026-05-07 13:05 42.62554 15.42693 37031 ft 505 kts 70°
2026-05-07 13:05 42.64769 15.51741 37031 ft 505 kts 71°
2026-05-07 13:06 42.66975 15.60788 37031 ft 504 kts 71°
2026-05-07 13:06 42.69100 15.69860 37034 ft 504 kts 76°
2026-05-07 13:07 42.69774 15.79302 37034 ft 502 kts 95°
2026-05-07 13:07 42.68881 15.88614 37030 ft 500 kts 101°
2026-05-07 13:08 42.67860 15.97958 37029 ft 500 kts 100°
2026-05-07 13:08 42.66833 16.07302 37032 ft 500 kts 100°
2026-05-07 13:09 42.65789 16.16641 37036 ft 500 kts 101°
2026-05-07 13:09 42.64731 16.25965 37039 ft 499 kts 101°
2026-05-07 13:10 42.63688 16.35217 37039 ft 499 kts 100°
2026-05-07 13:10 42.62625 16.44531 37041 ft 499 kts 101°
2026-05-07 13:11 42.62087 16.49192 36908 ft 499 kts 101°
2026-05-07 13:11 42.61547 16.53840 36642 ft 499 kts 101°
2026-05-07 13:11 42.61004 16.58495 36176 ft 500 kts 101°
2026-05-07 13:11 42.60456 16.63190 35221 ft 507 kts 101°
2026-05-07 13:12 42.59911 16.67869 34323 ft 512 kts 101°
2026-05-07 13:12 42.59350 16.72676 33214 ft 519 kts 101°
2026-05-07 13:12 42.58784 16.77497 32520 ft 516 kts 101°
2026-05-07 13:12 42.58225 16.82271 31408 ft 510 kts 101°
2026-05-07 13:13 42.57668 16.87030 29918 ft 510 kts 101°
2026-05-07 13:13 42.57103 16.91813 28731 ft 514 kts 101°
2026-05-07 13:13 42.56538 16.96575 27930 ft 509 kts 101°
2026-05-07 13:13 42.55974 17.01294 26967 ft 505 kts 102°
2026-05-07 13:14 42.55425 17.05879 25939 ft 492 kts 102°
2026-05-07 13:14 42.54886 17.10359 25252 ft 472 kts 102°
2026-05-07 13:14 42.54363 17.14683 24524 ft 457 kts 102°
2026-05-07 13:14 42.53858 17.18862 23830 ft 443 kts 101°
2026-05-07 13:15 42.53589 17.22967 23133 ft 433 kts 96°
2026-05-07 13:15 42.53422 17.27031 22514 ft 430 kts 96°
2026-05-07 13:15 42.53249 17.31066 21908 ft 427 kts 96°
2026-05-07 13:15 42.53071 17.35081 21323 ft 427 kts 96°
2026-05-07 13:16 42.52890 17.39088 20741 ft 425 kts 96°
2026-05-07 13:16 42.52712 17.43074 20192 ft 422 kts 96°
2026-05-07 13:16 42.52540 17.46980 19661 ft 420 kts 95°
2026-05-07 13:16 42.52366 17.50927 19133 ft 418 kts 95°
2026-05-07 13:17 42.52192 17.54818 18929 ft 407 kts 95°
2026-05-07 13:17 42.52022 17.58585 18811 ft 394 kts 96°
2026-05-07 13:17 42.51857 17.62238 18693 ft 382 kts 96°
2026-05-07 13:17 42.51698 17.65775 18573 ft 371 kts 96°
2026-05-07 13:18 42.51520 17.69221 18363 ft 363 kts 100°
2026-05-07 13:18 42.50960 17.72463 18125 ft 354 kts 113°
2026-05-07 13:18 42.49943 17.75496 17335 ft 352 kts 122°
2026-05-07 13:18 42.48812 17.78350 16737 ft 347 kts 122°
2026-05-07 13:19 42.47908 17.81322 16429 ft 337 kts 103°
2026-05-07 13:19 42.47926 17.84429 16115 ft 328 kts 75°
2026-05-07 13:19 42.48919 17.87144 15644 ft 322 kts 46°
2026-05-07 13:19 42.50640 17.88973 15141 ft 311 kts 24°
2026-05-07 13:20 42.52583 17.90197 14672 ft 304 kts 10°
2026-05-07 13:20 42.54624 17.90455 14213 ft 289 kts 347°
2026-05-07 13:20 42.56506 17.89692 13779 ft 280 kts 326°
2026-05-07 13:20 42.57999 17.88128 13377 ft 274 kts 306°
2026-05-07 13:21 42.59021 17.85986 13033 ft 269 kts 294°
2026-05-07 13:21 42.59895 17.83742 12664 ft 270 kts 294°
2026-05-07 13:21 42.60770 17.81499 12340 ft 270 kts 294°
2026-05-07 13:21 42.61645 17.79252 12090 ft 267 kts 294°
2026-05-07 13:22 42.62508 17.77037 11618 ft 264 kts 294°
2026-05-07 13:22 42.63372 17.74824 11149 ft 268 kts 294°
2026-05-07 13:22 42.64236 17.72610 10904 ft 263 kts 295°
2026-05-07 13:22 42.65078 17.70454 10418 ft 261 kts 295°
2026-05-07 13:23 42.66067 17.68407 10014 ft 262 kts 312°
2026-05-07 13:23 42.67622 17.67106 9619 ft 269 kts 340°
2026-05-07 13:23 42.69494 17.66947 9212 ft 276 kts 10°
2026-05-07 13:23 42.71285 17.67939 8811 ft 281 kts 26°
2026-05-07 13:24 42.73026 17.69183 8418 ft 282 kts 27°
2026-05-07 13:24 42.74685 17.70607 8028 ft 282 kts 44°
2026-05-07 13:24 42.75495 17.71975 7761 ft 281 kts 64°
2026-05-07 13:24 42.75938 17.73539 7575 ft 276 kts 79°
2026-05-07 13:25 42.75920 17.76148 7060 ft 272 kts 110°
2026-05-07 13:25 42.75172 17.78428 6825 ft 261 kts 122°
2026-05-07 13:25 42.74318 17.80603 6460 ft 260 kts 123°
2026-05-07 13:25 42.73463 17.82768 6110 ft 260 kts 122°
2026-05-07 13:26 42.72906 17.84195 5956 ft 255 kts 122°
2026-05-07 13:26 42.72080 17.86311 5443 ft 255 kts 122°
2026-05-07 13:26 42.71229 17.88481 5072 ft 262 kts 122°
2026-05-07 13:26 42.70395 17.90620 4894 ft 252 kts 122°
2026-05-07 13:27 42.69350 17.93295 4635 ft 231 kts 122°
2026-05-07 13:27 42.68606 17.95190 4526 ft 225 kts 122°
2026-05-07 13:27 42.67874 17.97055 4409 ft 221 kts 122°
2026-05-07 13:27 42.67389 17.98291 4350 ft 216 kts 122°
2026-05-07 13:28 42.66709 18.00025 4283 ft 204 kts 122°
2026-05-07 13:28 42.66066 18.01666 4197 ft 189 kts 123°
2026-05-07 13:28 42.65463 18.03200 4044 ft 179 kts 123°
2026-05-07 13:28 42.64896 18.04640 3844 ft 166 kts 123°
2026-05-07 13:29 42.64374 18.05968 3626 ft 153 kts 123°
2026-05-07 13:29 42.63887 18.07204 3439 ft 145 kts 123°
2026-05-07 13:29 42.63417 18.08395 3251 ft 142 kts 123°
2026-05-07 13:29 42.62953 18.09570 3076 ft 141 kts 123°
2026-05-07 13:30 42.62498 18.10724 2886 ft 140 kts 122°
2026-05-07 13:30 42.62046 18.11872 2716 ft 137 kts 122°
2026-05-07 13:30 42.61601 18.12999 2526 ft 135 kts 122°
2026-05-07 13:30 42.61158 18.14121 2347 ft 135 kts 121°
2026-05-07 13:31 42.60715 18.15243 2161 ft 135 kts 121°
2026-05-07 13:31 42.60275 18.16358 1986 ft 134 kts 122°
2026-05-07 13:31 42.59834 18.17474 1794 ft 134 kts 121°
2026-05-07 13:31 42.59393 18.18590 1612 ft 135 kts 120°
2026-05-07 13:32 42.58949 18.19714 1425 ft 136 kts 120°
2026-05-07 13:32 42.58504 18.20840 1234 ft 136 kts 119°
2026-05-07 13:32 42.58061 18.21957 1062 ft 136 kts 118°
2026-05-07 13:32 42.57606 18.23062 850 ft 133 kts 116°
2026-05-07 13:33 42.57175 18.24188 684 ft 135 kts 117°
2026-05-07 13:33 42.56746 18.25309 542 ft 125 kts 119°
2026-05-07 13:33 42.56387 18.26200 527 ft 84 kts 118°
2026-05-07 13:33 42.56187 18.26696 527 ft 40 kts 119°
2026-05-07 13:34 42.56068 18.26997 528 ft 34 kts 116°
2026-05-07 13:34 42.55821 18.27342 521 ft 16 kts 177°
2026-05-07 13:34 42.55781 18.27259 522 ft 4 kts 280°
2026-05-07 13:35 42.55782 18.27257 522 ft 0 kts 282°
2026-05-07 13:35 42.55791 18.27231 522 ft 9 kts 301°
2026-05-07 13:35 42.55850 18.27075 524 ft 25 kts 297°
2026-05-07 13:36 42.55926 18.26885 524 ft 21 kts 298°
2026-05-07 13:36 42.55991 18.26716 524 ft 19 kts 297°
2026-05-07 13:36 42.56045 18.26578 523 ft 16 kts 298°
2026-05-07 13:36 42.56097 18.26451 524 ft 15 kts 300°
2026-05-07 13:37 42.56134 18.26351 523 ft 7 kts 278°
2026-05-07 13:37 42.56104 18.26315 522 ft 3 kts 210°
2026-05-07 13:37 42.56091 18.26305 521 ft 2 kts 210°
2026-05-07 13:37 42.56089 18.26303 521 ft 0 kts 209°